Wind_Speed
18 20 21 23 23 24 25 25 25 24 24 23 23 23 22 20 20 20 20 20 21 21 21 21 21 21 21 21 20 21 21 21 20 18 17 18 18 18 18 17 15 14
18 20 22 23 24 24 24 25 25 25 25 25 24 24 22 21 21 21 22 23 23 23 22 22 22 22 22 22 21 22 22 21 20 18 17 17 16 17 18 17 14 11
20 21 23 24 25 25 26 26 26 26 26 26 25 24 24 23 23 23 23 23 23 23 22 22 22 22 22 22 22 22 21 20 19 17 16 16 15 16 16 15 13 11
19 21 23 24 26 27 28 28 27 27 27 26 26 25 25 24 24 25 24 24 24 23 22 21 21 21 22 21 21 21 21 20 18 15 15 15 14 15 14 12 11 10
19 21 22 24 26 27 28 28 28 28 28 28 27 26 25 25 26 26 26 25 25 24 23 22 22 22 22 21 21 21 20 19 17 14 14 15 14 13 13 11 10 10
19 20 22 24 25 27 27 28 29 29 29 28 28 27 26 26 26 27 27 27 26 25 24 23 23 23 22 21 20 20 18 17 16 13 13 14 13 12 11 10 9 9
19 20 22 23 24 25 26 27 28 29 29 29 29 28 27 27 27 27 27 27 26 25 23 22 22 22 20 19 19 18 17 16 14 13 13 13 12 11 10 9 8 8
20 21 22 23 24 25 25 27 28 29 30 31 31 29 28 27 27 27 26 26 25 24 23 22 21 21 19 18 18 17 16 15 13 12 12 11 10 10 9 7 7 6
21 22 23 24 25 26 26 28 29 30 30 31 31 30 28 28 28 27 26 25 25 23 22 21 20 20 19 18 17 16 15 13 12 10 10 10 9 8 7 6 6 5
22 23 24 25 26 27 28 29 30 30 30 30 31 30 30 29 28 28 26 25 24 23 21 21 20 19 18 17 15 14 12 12 10 9 9 8 8 7 6 5 5 4
22 24 26 27 28 29 30 31 31 31 31 31 31 31 30 30 28 27 26 24 23 22 21 20 19 18 17 16 14 12 11 11 10 9 8 7 7 6 5 4 4 3
23 24 26 28 29 31 32 32 32 32 32 32 32 31 30 29 27 26 25 24 22 21 20 19 18 17 16 15 13 12 11 10 9 9 8 7 6 5 5 4 3 3
22 24 26 28 30 31 32 32 33 33 33 32 31 31 30 28 27 25 24 23 22 20 19 18 17 16 15 14 12 11 10 9 9 8 7 6 6 5 4 3 3 3
22 24 27 29 30 31 32 32 33 33 32 32 31 30 29 27 26 25 23 22 21 19 18 17 16 15 14 13 12 11 10 9 9 8 7 6 5 4 3 2 2 2
23 25 27 29 31 32 33 33 33 32 31 31 30 29 28 26 25 23 22 21 20 19 17 16 15 15 14 12 11 11 10 9 8 7 6 5 4 3 2 1 0 1
25 27 29 30 32 33 33 33 33 33 31 30 29 27 26 25 23 22 21 20 19 18 17 16 15 14 13 12 10 9 9 8 7 6 5 5 4 3 2 1 1 1
27 29 31 32 33 33 33 33 32 32 31 29 27 26 25 23 22 21 19 19 18 17 17 16 15 14 12 11 10 9 8 7 6 5 4 3 3 3 2 1 0 1
29 31 33 33 34 34 33 32 32 30 29 28 27 25 23 22 20 19 18 17 17 17 16 15 14 13 12 10 9 8 7 6 5 4 3 2 1 1 0 0 1 3
31 33 34 33 33 33 33 32 31 29 27 26 25 24 22 21 19 18 17 17 16 16 15 15 13 12 11 10 8 7 6 5 4 4 3 2 2 2 3 3 4 5
32 34 34 33 32 32 31 29 28 27 25 24 23 22 20 20 18 17 17 16 15 15 14 13 12 11 10 9 8 7 6 5 5 4 3 3 4 4 5 5 6 6
33 35 34 33 31 29 28 27 26 25 24 22 21 20 19 18 18 17 16 15 14 13 13 13 12 11 10 9 8 8 7 5 4 4 3 4 4 4 5 6 6 7
35 36 34 32 31 28 26 26 25 24 23 21 20 18 17 17 16 15 15 15 14 13 12 12 12 11 10 9 8 7 6 5 4 4 4 4 4 5 6 7 7 8
34 35 35 32 30 27 26 25 25 24 22 20 19 18 16 16 15 14 14 13 13 12 11 11 11 10 9 8 7 6 5 5 5 4 4 5 6 6 8 8 9 9
34 34 34 31 28 27 27 26 24 23 21 19 18 17 16 15 14 14 13 12 12 11 10 10 10 9 8 7 6 6 5 5 5 5 5 6 7 8 9 10 10 11
33 31 30 28 26 26 26 25 23 22 20 17 16 15 15 14 13 12 12 11 11 10 9 9 8 8 7 7 6 6 5 4 5 6 6 7 7 9 10 11 11 12
30 29 27 26 26 25 25 24 23 21 18 16 15 14 13 13 12 11 11 10 10 10 9 8 7 7 6 6 5 5 5 5 6 7 7 8 9 10 11 12 13 13
Wind_Direction
186 181 175 167 162 161 160 158 155 152 150 150 148 145 143 143 145 146 144 140 138 134 132 131 130 130 129 127 127 123 118 115 109 107 111 115 118 115 109 107 107 110
183 177 172 166 161 160 158 157 156 154 153 152 151 148 146 145 145 143 140 138 135 133 131 130 129 128 128 126 125 122 118 115 111 109 111 112 116 117 114 111 110 115
179 175 172 167 162 158 157 157 158 156 153 152 151 149 147 146 145 142 140 139 136 134 132 132 131 129 127 126 124 122 118 116 115 115 116 114 114 114 115 116 114 115
173 172 170 167 163 160 159 158 157 156 155 152 151 150 149 147 146 143 140 138 135 133 132 130 129 126 125 124 123 120 117 116 117 119 119 116 114 113 115 119 119 114
169 168 166 165 163 161 160 158 157 157 156 154 151 151 149 146 145 142 139 138 135 133 132 129 126 125 125 125 122 119 118 118 119 123 122 117 114 114 116 119 118 113
166 165 163 163 161 160 159 157 157 157 155 153 151 149 148 145 144 142 140 138 137 136 134 132 130 129 128 126 122 118 118 119 121 125 121 116 115 115 117 118 115 113
166 164 162 161 160 160 158 155 154 154 152 151 149 147 147 146 144 142 141 139 137 137 135 134 132 129 126 123 119 117 118 120 123 124 120 117 118 116 116 116 113 113
168 165 163 162 159 157 154 152 151 151 150 150 148 147 148 147 143 140 139 138 136 135 134 132 129 126 122 120 118 119 121 122 122 123 120 119 119 117 114 113 111 109
168 165 164 162 159 156 153 151 150 149 150 150 147 147 147 144 142 139 137 136 135 134 133 131 128 124 121 119 120 122 123 123 123 123 121 119 116 115 111 107 104 101
169 166 165 163 160 158 155 153 151 150 151 150 146 144 143 141 141 140 140 138 136 135 133 131 127 124 122 120 121 123 124 125 125 123 120 117 115 111 107 101 94 92
170 168 167 166 163 160 157 155 153 152 151 149 146 144 142 142 142 141 141 140 137 136 134 131 128 125 124 124 125 129 131 130 128 125 122 118 114 110 106 104 96 89
172 170 169 167 164 162 159 157 154 152 150 148 147 146 143 142 141 141 141 140 138 137 135 131 128 126 126 128 131 134 135 134 131 128 126 121 117 113 108 102 89 72
169 168 167 164 162 160 158 156 153 150 148 147 147 146 143 142 141 140 140 139 138 137 135 132 130 129 131 133 137 140 139 137 135 132 131 125 117 108 98 83 63 47
165 164 163 160 158 156 154 152 150 147 145 145 145 144 142 142 142 141 140 139 139 137 135 134 133 134 137 140 143 144 143 141 138 136 134 128 119 109 97 75 40 14
162 162 160 158 156 154 152 150 147 145 143 143 143 143 142 143 143 142 141 140 140 139 137 137 138 138 141 145 147 148 147 145 142 141 138 135 134 130 130 126 29 295
161 160 158 155 154 152 150 148 147 145 143 143 143 143 143 143 143 143 143 144 143 143 142 141 142 143 145 149 150 149 149 146 145 145 142 142 145 143 148 159 164 243
158 158 156 154 152 150 148 147 147 146 145 145 144 144 144 144 145 146 147 147 147 145 145 145 146 147 149 151 152 151 151 150 147 143 140 135 131 128 123 114 84 287
156 156 154 152 151 149 148 148 148 147 147 146 146 146 146 146 148 149 149 150 150 148 148 149 150 151 152 154 155 155 155 152 148 143 140 129 115 120 146 272 268 271
155 155 153 152 151 151 150 150 149 148 147 147 147 148 149 149 151 152 152 153 154 152 151 152 153 153 154 155 157 161 163 164 164 163 164 176 203 240 261 267 267 269
155 155 154 152 151 151 150 149 149 148 148 149 149 150 151 152 154 155 156 157 158 156 154 154 155 155 156 160 164 170 178 183 185 191 202 215 231 248 264 274 278 280
157 155 153 152 152 151 150 150 150 151 151 151 152 152 154 156 158 159 160 160 161 161 158 157 160 160 162 168 172 178 188 197 202 217 231 240 252 264 273 280 282 282
158 156 154 154 154 152 151 153 154 153 153 154 153 154 158 161 162 163 163 164 164 165 163 162 164 166 169 175 179 184 195 204 219 239 252 264 277 282 284 286 285 287
160 159 158 156 156 155 154 155 155 155 156 158 158 158 162 166 166 167 168 168 168 169 170 169 168 171 175 178 184 194 204 211 229 249 262 278 288 290 292 294 294 298
163 162 161 159 158 158 157 156 157 158 159 160 162 163 166 171 173 171 170 171 172 173 176 177 174 174 179 184 192 206 216 221 237 255 264 275 283 286 291 297 299 301
164 162 161 160 159 159 158 158 158 159 159 161 165 168 171 175 177 176 175 174 175 177 181 185 183 180 186 193 200 214 229 233 241 253 260 268 277 283 289 292 294 294
164 162 162 161 160 159 159 160 161 161 162 163 167 172 176 178 180 182 183 181 179 179 183 189 193 194 198 202 207 222 240 248 250 258 267 274 279 280 281 282 283 286
Height
750 751 752 752 754 755 756 758 760 762 764 766 769 770 772 775 776 778 779 781 782 782 783 785 786 787 788 789 790 791 793 796 798 801 803 805 806 807 807 808 810 811
748 750 751 752 753 755 756 758 760 761 763 766 767 769 772 774 776 778 779 780 782 783 784 786 787 788 788 789 791 792 794 796 799 802 804 806 808 808 808 809 811 812
747 748 750 751 752 754 755 757 759 761 763 765 767 769 771 774 775 777 779 781 782 784 786 788 789 789 790 791 792 793 795 797 800 803 805 807 809 808 809 810 812 813
747 747 749 750 751 753 754 755 758 760 763 765 767 769 771 773 775 777 779 781 783 785 787 790 790 790 791 793 793 794 796 798 801 804 806 807 809 809 810 811 812 814
748 748 749 750 751 752 753 754 757 759 761 764 767 769 772 774 775 777 779 781 783 785 788 790 791 791 793 794 794 795 797 800 802 805 806 808 809 809 811 812 813 814
749 749 750 751 752 753 754 754 756 758 761 763 766 769 772 774 776 777 779 780 783 786 788 790 791 792 793 794 794 796 798 801 804 806 807 808 809 810 811 813 813 814
749 750 751 752 753 754 755 756 757 759 761 763 766 769 772 774 776 777 779 781 783 786 789 791 792 792 793 793 794 797 799 802 805 807 808 808 809 811 811 812 813 814
748 749 751 752 753 755 756 757 758 760 761 763 764 768 771 774 776 778 780 782 784 787 789 791 792 792 793 794 795 798 801 803 805 807 808 809 810 810 811 812 813 814
748 749 750 752 753 755 757 758 759 760 762 763 765 768 771 773 776 778 780 783 785 788 790 791 792 792 793 794 796 799 802 804 806 807 808 809 810 810 811 812 813 814
748 748 750 751 753 754 756 758 759 761 763 764 766 769 771 773 775 778 781 783 786 788 790 791 792 792 793 795 797 800 802 804 806 807 808 809 810 810 811 812 812 813
748 748 749 750 751 754 755 757 759 761 762 764 767 769 772 773 775 778 781 783 786 788 790 791 792 792 793 796 798 801 803 805 806 807 808 809 809 810 811 811 812 813
748 749 749 750 751 753 755 757 758 760 762 765 767 769 772 774 776 779 781 783 786 788 790 791 791 793 794 796 799 802 803 805 806 807 808 809 809 810 811 811 812 812
748 749 750 751 752 753 755 757 759 761 763 765 767 769 772 774 777 779 782 784 786 788 790 791 791 793 795 797 800 802 803 804 805 806 807 808 809 809 810 811 811 811
749 751 751 752 753 754 755 757 759 762 764 766 769 770 772 775 777 780 782 784 786 788 789 790 791 793 795 797 800 801 803 804 805 806 807 807 808 809 809 810 810 811
749 751 752 753 754 754 756 758 760 762 765 767 770 771 773 776 778 780 782 784 786 788 789 790 791 793 795 797 799 801 802 803 804 805 806 806 807 807 808 809 809 810
748 751 753 754 755 755 757 758 760 762 765 768 771 773 774 776 778 780 782 784 786 787 788 790 791 793 795 797 798 800 801 802 803 804 805 805 806 806 807 808 808 809
748 751 753 754 755 756 757 759 761 763 766 769 771 773 775 777 778 780 782 784 785 787 788 789 791 793 794 796 797 799 800 801 802 803 803 804 805 805 806 807 807 808
748 751 753 755 756 757 758 760 763 765 767 769 771 773 775 777 779 781 783 784 785 787 788 789 791 792 794 795 797 798 799 800 801 801 802 803 803 804 805 806 806 807
748 751 754 756 757 758 759 761 763 766 768 770 771 773 775 777 779 781 783 784 786 787 788 789 790 792 793 794 796 797 798 799 800 800 801 802 802 803 804 804 805 806
748 750 753 756 758 759 761 762 764 766 769 771 772 774 775 777 779 781 783 784 786 787 788 789 790 791 792 794 795 796 797 798 799 799 800 801 801 802 802 803 803 804
748 750 753 756 758 760 762 764 766 767 769 771 773 775 776 778 779 781 782 784 785 787 788 788 790 791 792 793 794 795 796 797 797 798 799 799 800 800 801 801 802 802
747 749 752 755 757 760 762 764 766 768 770 772 773 775 777 778 780 781 782 784 785 786 787 788 789 790 791 792 794 794 795 795 796 796 797 797 798 798 799 799 800 800
746 748 751 754 756 758 761 763 765 767 770 772 773 775 777 779 780 781 783 784 785 785 787 787 788 790 791 791 792 793 793 794 794 795 795 795 796 796 797 797 797 797
745 748 750 753 756 758 760 762 765 767 769 772 773 775 777 779 780 781 783 783 784 785 786 787 788 789 789 790 791 791 792 792 792 793 793 793 794 794 794 794 795 795
745 748 751 754 756 758 760 762 765 767 769 772 774 775 777 779 780 781 782 783 784 785 785 786 787 787 788 789 789 789 790 790 791 791 791 792 792 792 792 792 793 793
745 748 751 754 756 758 760 762 764 767 769 771 774 775 777 779 780 781 781 782 783 783 784 785 785 786 786 787 787 788 788 788 789 789 789 789 789 790 790 790 791 791